Location: Unspecified
(22.6800°N, 112.2000°E)
Time: 11:37:03
(UTC+08:00)

Transit 2A - Pass Details

Date: 07 August 2021
Orbit: 595 x 963 km, 66.7° (Epoch: 16 September)

Event Time Altitude Azimuth Distance (km) Brightness Sun altitude
Rises 13:38:08 0° 1° (N) 3,393 9.3 74.3°
Reaches altitude 10° 13:41:30 10° 22° (NNE) 2,526 8.7 73.6°
Maximum altitude 13:45:10 17° 60° (ENE) 2,144 8.4 72.8°
Drops below altitude 10° 13:48:57 10° 99° (E) 2,639 8.7 71.9°
Sets 13:52:34 0° 118° (ESE) 3,616 9.3 71.1°
